This is the latest recevied weather packets stored in our database for station/object KD4EG. If no packets are shown the sender has not sent any weather packets the latest 10 day(s).
| Time | Temp. | Humidity | Pressure | Rain* | Wind** | Luminosity | Snow |
|---|---|---|---|---|---|---|---|
| 1787839102 | 23.89° C | 84% | 1018.8 hPa | 0 mm | - | 347 W/m² | - |
| 1787838800 | 23.89° C | 84% | 1018.9 hPa | 0 mm | - | 389 W/m² | - |
| 1787838495 | 23.89° C | 86% | 1019.2 hPa | 0 mm | - | 330 W/m² | - |
| 1787838194 | 23.33° C | 87% | 1019.2 hPa | 0 mm | - | 271 W/m² | - |
| 1787837894 | 23.33° C | 87% | 1019 hPa | 0 mm | - | 147 W/m² | - |
| 1787837592 | 23.33° C | 87% | 1019 hPa | 0 mm | - | 140 W/m² | - |
| 1787837287 | 23.33° C | 87% | 1019.2 hPa | 0 mm | - | 175 W/m² | - |
| 1787836983 | 23.33° C | 87% | 1019 hPa | 0 mm | - | 224 W/m² | - |
| 1787836677 | 22.78° C | 88% | 1018.8 hPa | 0 mm | - | 174 W/m² | - |
| 1787836376 | 23.33° C | 88% | 1018.8 hPa | 0 mm | - | 140 W/m² | - |
| 1787836072 | 22.78° C | 89% | 1018.9 hPa | 0 mm | - | 178 W/m² | - |
| 1787835768 | 22.22° C | 90% | 1018.8 hPa | 0 mm | - | 177 W/m² | - |
| 1787835462 | 22.22° C | 90% | 1018.6 hPa | 0 mm | - | 141 W/m² | - |
| 1787835157 | 22.22° C | 91% | 1018.8 hPa | 0 mm | - | 122 W/m² | - |
| 1787834857 | 21.67° C | 92% | 1018.9 hPa | 0 mm | - | 102 W/m² | - |
| 1787834552 | 21.67° C | 92% | 1019 hPa | 0 mm | - | 83 W/m² | - |
| 1787834246 | 21.67° C | 93% | 1018.8 hPa | 0 mm | - | 78 W/m² | - |
| 1787833943 | 21.67° C | 93% | 1018.8 hPa | 0 mm | - | 89 W/m² | - |
| 1787833638 | 21.67° C | 93% | 1019 hPa | 0 mm | - | 70 W/m² | - |
| 1787833333 | 21.67° C | 93% | 1018.9 hPa | 0 mm | - | 54 W/m² | - |
| 1787833028 | 21.67° C | 93% | 1019 hPa | 0 mm | - | 49 W/m² | - |
| 1787832724 | 21.67° C | 94% | 1018.8 hPa | 0 mm | - | 44 W/m² | - |
| 1787832423 | 21.11° C | 94% | 1019.2 hPa | 0 mm | - | 32 W/m² | - |
| 1787832123 | 21.11° C | 94% | 1018.7 hPa | 0 mm | - | 27 W/m² | - |
| 1787831821 | 21.11° C | 95% | 1018.9 hPa | 0 mm | - | 26 W/m² | - |
* Rain latest hour (hover to see other rain measurements)
** Current wind speed in m/s (hover to see current wind gust speed)